Погода в Колове

Россия / Республика Карелия     61°48′06″N   36°47′32″E
темп.,
°C
ветер,
м/с
пор.,
м/с
влажн.,
%
обл.,
%
осадки,
мм/ч
давл.,
гПа
погр.,
м
19 сентября, вс
вс1900:00+5всв1267100 0.0 103049
03:00+5св1165100 0.0 103129
06:00+4всв1369100 0.0 103192
09:00+6всв255881 0.0 1031651
12:00+9всв344976 0.0 10311479
15:00+9всв444972 0.0 10311522
18:00+6всв27645 0.0 1031237
21:00+2всв28875 0.0 1032217
20 сентября, пн
пн2000:00+1св268729 0.0 1033134
03:00+4всв2770100 0.0 1033237
06:00+4св39785 0.0 1033388
09:00+4всв49705 0.0 1033630
12:00+6в5756100 0.0 10331421
15:00+6всв485697 0.0 10321338
18:00+6всв375977 0.0 1031881
21:00+2всв3118112 0.0 1031331
21 сентября, вт
вт2100:000всв29935 0.0 1031236
03:00−1всв39955 0.0 1030204
06:00−1всв310945 0.0 1029258
09:00+3в4107393 0.0 1028449
12:00+8в475574 0.0 1026944
15:00+9в465450 0.0 10251123
18:00+7в387099 0.0 1025285
21:00+3в278999 0.0 1025175
22 сентября, ср
ср2200:00+2всв279432 0.0 1025165
03:00+1всв269724 0.0 1025126
06:00+1всв289742 0.0 1025191
09:00+5в38745 0.0 1025386
12:00+10в35545 0.0 1024857
15:00+11в45504 0.0 10221031
18:00+7в26710 0.0 1022129
21:00+3в26880 0.0 1022126
23 сентября, чт
чт2300:00+2в279241 0.0 1020149
03:00+2в279537 0.0 1018150
06:00+4вюв2887100 0.0 1017333
09:00+6юв3886100 0.0 1016483
12:00+8ююв3881100 0.0 1015708
15:00+9ююв3783100 0.0 1014824
18:00+9юв3785100 0.0 1012541
21:00+8юв31092100 0.0 1011592